Weather History for Slayton, MN

Change the Weather History Date:

Sunday, April 1, 2012

  Actual Average (KOTG) Record (KOTG)
Temperature  
Mean Temperature 62 °F -  
Max Temperature 81 °F 45 °F 84 °F (2012)
Min Temperature 44 °F 28 °F 7 °F (1975)
Degree Days  
Heating Degree Days 2    
Growing Degree Days 12 (Base 50)    
Moisture  
Dew Point 51 °F    
Average Humidity 76    
Maximum Humidity 100    
Minimum Humidity 36    
Precipitation  
Precipitation 0.00 in - - ()
Sea Level Pressure  
Sea Level Pressure 29.57 in    
Wind  
Wind Speed 12 mph (ESE)    
Max Wind Speed 25 mph    
Max Gust Speed 31 mph    
Visibility 5 miles    
Events Fog , Rain    
Averages and records for this station are not official NWS values.
T = Trace of Precipitation, MM = Missing Value Source: NWS Daily Summary

Daily Weather History Graph

Daily Weather History Graph

Search for Another Location

Airport:

Trip Planner

Search our weather history database for the weather conditions in past years. The results will help you decide how hot, cold, wet, or windy it might be!

Date:

Astronomy

Apr. 01, 2012 Rise Set
Actual Time 7:03 AM CDT 7:50 PM CDT
Civil Twilight 6:34 AM CDT 8:20 PM CDT
Nautical Twilight 5:59 AM CDT 8:54 PM CDT
Astronomical Twilight 5:23 AM CDT 9:31 PM CDT
Moon 2:11 PM CDT (4/1) 3:52 AM CDT (4/1)
Length of Visible Light 13h 45m
Length of Day
12h 47m
Waxing Gibbous, 69% of the Moon is Illuminated
Apr 1
Waxing Gibbous
Apr 6
Full
Apr 13
Last Quarter
Apr 21
New
Apr 29
First Quarter

Hourly Weather History & Observations

Time (CDT) Temp. Windchill Dew Point Humidity Pressure Visibility Wind Dir Wind Speed Gust Speed Precip Events Conditions
12:14 AM 52.3 °F - 52.0 °F 99% 29.69 in 0.8 mi East 8.1 mph - N/A   Overcast
12:35 AM 52.3 °F - 52.2 °F 99% 29.69 in 0.2 mi East 8.1 mph - N/A Fog Fog
12:55 AM 52.2 °F - 52.0 °F 99% 29.69 in 0.2 mi East 6.9 mph - N/A Fog Fog
1:14 AM 52.3 °F - 52.2 °F 99% 29.69 in 0.2 mi ESE 8.1 mph - N/A Fog Fog
1:35 AM 52.3 °F - 52.2 °F 99% 29.69 in 0.2 mi ESE 6.9 mph - N/A Fog Fog
2:14 AM 52.7 °F - 52.3 °F 99% 29.68 in 0.2 mi East 6.9 mph - N/A Fog Fog
2:35 AM 52.3 °F - 52.2 °F 99% 29.68 in 0.2 mi East 5.8 mph - N/A Fog Fog
2:55 AM 52.2 °F - 52.0 °F 99% 29.67 in 0.2 mi ESE 9.2 mph - N/A Fog Fog
3:14 AM 52.0 °F - 51.8 °F 99% 29.66 in 0.2 mi ESE 8.1 mph - N/A Fog Fog
3:35 AM 51.8 °F - 51.8 °F 100% 29.65 in 0.2 mi ESE 9.2 mph - N/A Fog Fog
4:15 AM 50.9 °F - 50.5 °F 99% 29.64 in 0.2 mi ESE 9.2 mph - N/A   Drizzle
4:35 AM 50.9 °F - 50.5 °F 99% 29.64 in 0.2 mi SE 11.5 mph - N/A Rain Rain
4:55 AM 50.2 °F - 50.0 °F 99% 29.64 in 0.2 mi ESE 10.4 mph - N/A   Drizzle
5:15 AM 49.6 °F - 49.5 °F 99% 29.64 in 0.2 mi ESE 12.7 mph 17.3 mph N/A   Drizzle
5:35 AM 48.2 °F - 48.2 °F 100% 29.64 in 0.2 mi ESE 11.5 mph - N/A Fog Fog
5:55 AM 47.3 °F - 47.3 °F 100% 29.64 in 0.2 mi ESE 10.4 mph - N/A Fog Fog
6:14 AM 46.9 °F - 46.8 °F 99% 29.64 in 0.2 mi ESE 9.2 mph - N/A Fog Fog
6:35 AM 46.8 °F - 46.6 °F 99% 29.64 in 0.2 mi ESE 8.1 mph - N/A Fog Fog
7:15 AM 45.7 °F 40.6 °F 45.5 °F 99% 29.64 in 0.2 mi East 10.4 mph - N/A Fog Fog
7:35 AM 45.5 °F 40.3 °F 45.1 °F 99% 29.64 in 0.2 mi East 10.4 mph - N/A Fog Fog
7:55 AM 44.6 °F 39.2 °F 44.6 °F 100% 29.65 in 0.2 mi East 10.4 mph - N/A Fog Fog
8:15 AM 45.0 °F 40.6 °F 44.8 °F 99% 29.64 in 0.2 mi East 8.1 mph - N/A Fog Fog
8:35 AM 44.6 °F 38.4 °F 44.4 °F 99% 29.64 in 0.2 mi East 12.7 mph - N/A Fog Fog
8:55 AM 44.2 °F 38.0 °F 44.1 °F 99% 29.64 in 0.2 mi ESE 12.7 mph 17.3 mph N/A Fog Fog
9:15 AM 44.6 °F 37.4 °F 44.4 °F 99% 29.62 in 0.2 mi ESE 16.1 mph - N/A Fog Fog
9:35 AM 44.8 °F 38.0 °F 44.6 °F 99% 29.62 in 0.2 mi ESE 15.0 mph - N/A Fog Fog
9:55 AM 45.5 °F 38.6 °F 45.5 °F 100% 29.62 in 0.5 mi ESE 16.1 mph - N/A Fog Fog
10:14 AM 46.0 °F 39.9 °F 45.9 °F 99% 29.61 in 1.0 mi ESE 13.8 mph - N/A   Overcast
10:35 AM 48.6 °F - 48.4 °F 99% 29.60 in 2.0 mi ESE 16.1 mph 19.6 mph N/A   Overcast
10:55 AM 50.0 °F - 49.8 °F 99% 29.59 in 2.0 mi ESE 18.4 mph 23.0 mph N/A   Overcast
11:14 AM 52.7 °F - 50.2 °F 91% 29.58 in 3.0 mi ESE 19.6 mph - N/A   Overcast
11:35 AM 56.3 °F - 52.0 °F 85% 29.57 in 4.0 mi ESE 25.3 mph - N/A   Overcast
11:55 AM 59.5 °F - 52.7 °F 78% 29.55 in 5.0 mi SE 21.9 mph 25.3 mph N/A   Haze
12:15 PM 63.9 °F - 53.4 °F 69% 29.55 in 7.0 mi SE 23.0 mph 31.1 mph N/A   Clear
12:35 PM 66.6 °F - 53.6 °F 63% 29.57 in 7.0 mi ESE 12.7 mph - N/A   Clear
12:54 PM 68.2 °F - 53.6 °F 60% 29.57 in 7.0 mi ESE 16.1 mph - N/A   Clear
1:15 PM 70.7 °F - 54.0 °F 55% 29.56 in 10.0 mi ESE 15.0 mph 23.0 mph N/A   Clear
1:35 PM 71.6 °F - 54.0 °F 54% 29.55 in 7.0 mi ESE 17.3 mph 23.0 mph N/A   Clear
1:55 PM 73.6 °F - 54.3 °F 51% 29.53 in 10.0 mi SE 17.3 mph 25.3 mph N/A   Clear
2:15 PM 75.2 °F - 54.5 °F 48% 29.52 in 10.0 mi ESE 18.4 mph - N/A   Clear
2:35 PM 76.3 °F - 54.7 °F 47% 29.51 in 10.0 mi ESE 18.4 mph 27.6 mph N/A   Clear
2:54 PM 77.4 °F - 54.5 °F 45% 29.50 in 10.0 mi SE 19.6 mph 27.6 mph N/A   Clear
3:15 PM 77.9 °F - 53.8 °F 43% 29.48 in 10.0 mi SE 19.6 mph 25.3 mph N/A   Clear
3:34 PM 79.0 °F - 53.4 °F 41% 29.48 in 10.0 mi ESE 19.6 mph 28.8 mph N/A   Clear
3:55 PM 80.4 °F - 52.9 °F 38% 29.48 in 10.0 mi SE 18.4 mph - N/A   Clear
4:15 PM 81.0 °F - 52.2 °F 37% 29.47 in 10.0 mi SE 19.6 mph 27.6 mph N/A   Clear
4:35 PM 81.1 °F - 52.3 °F 37% 29.46 in 10.0 mi ESE 20.7 mph 25.3 mph N/A   Clear
4:54 PM 81.3 °F - 52.0 °F 36% 29.46 in 10.0 mi ESE 19.6 mph 25.3 mph N/A   Clear
5:15 PM 81.1 °F - 52.5 °F 37% 29.45 in 10.0 mi ESE 19.6 mph 25.3 mph N/A   Clear
5:34 PM 81.0 °F - 52.7 °F 37% 29.45 in 10.0 mi ESE 19.6 mph - N/A   Clear
6:15 PM 81.0 °F - 53.8 °F 39% 29.44 in 10.0 mi ESE 21.9 mph 27.6 mph N/A   Clear
6:35 PM 80.6 °F - 53.8 °F 39% 29.44 in 10.0 mi ESE 23.0 mph 27.6 mph N/A   Clear
6:54 PM 79.3 °F - 54.5 °F 42% 29.45 in 10.0 mi ESE 21.9 mph 28.8 mph N/A   Clear
7:15 PM 77.5 °F - 55.2 °F 46% 29.45 in 10.0 mi ESE 18.4 mph - N/A   Clear
7:35 PM 75.6 °F - 55.4 °F 49% 29.46 in 10.0 mi ESE 17.3 mph - N/A   Clear
7:55 PM 73.4 °F - 55.9 °F 54% 29.47 in 10.0 mi ESE 16.1 mph 23.0 mph N/A   Clear
8:15 PM 71.2 °F - 56.5 °F 60% 29.47 in 10.0 mi ESE 19.6 mph 26.5 mph N/A   Clear
8:34 PM 69.6 °F - 57.2 °F 65% 29.47 in 10.0 mi ESE 19.6 mph 24.2 mph N/A   Clear
8:55 PM 68.0 °F - 57.2 °F 68% 29.48 in 10.0 mi ESE 17.3 mph - N/A   Clear
9:14 PM 66.9 °F - 57.4 °F 71% 29.49 in 10.0 mi ESE 17.3 mph 24.2 mph N/A   Clear
9:34 PM 66.2 °F - 57.7 °F 74% 29.49 in 10.0 mi ESE 19.6 mph 26.5 mph N/A   Clear
9:55 PM 65.3 °F - 57.7 °F 76% 29.49 in 10.0 mi ESE 20.7 mph 25.3 mph N/A   Clear
10:15 PM 64.4 °F - 57.7 °F 79% 29.49 in 7.0 mi ESE 19.6 mph 27.6 mph N/A   Clear
10:34 PM 63.5 °F - 57.6 °F 81% 29.50 in 7.0 mi ESE 20.7 mph 26.5 mph N/A   Clear
10:55 PM 62.2 °F - 57.2 °F 84% 29.50 in 7.0 mi ESE 23.0 mph 27.6 mph N/A   Clear
11:15 PM 61.0 °F - 56.5 °F 85% 29.52 in 7.0 mi SE 21.9 mph 28.8 mph N/A   Clear
11:34 PM 60.3 °F - 56.5 °F 87% 29.52 in 5.0 mi SE 18.4 mph 26.5 mph N/A   Clear
11:55 PM 59.4 °F - 56.3 °F 90% 29.52 in 5.0 mi ESE 19.6 mph 24.2 mph N/A   Clear